Lid_Strength_Index
3 3 3 3 3 3 3 3 3 3 3 3 4 4 4 4 3 3 3 4 4 3 3 3 3 3 5 10 9 2 -2 -2 2 5 7 9 10 12 12 13 12 13 12 10 9 9 12
3 3 3 3 3 3 3 3 3 3 3 3 4 4 4 4 3 3 3 3 3 3 3 3 3 3 8 13 6 1 1 4 6 7 8 8 9 9 11 12 12 10 11 9 9 9 11
3 3 3 3 3 3 3 3 3 3 3 4 4 4 4 4 4 3 3 3 4 3 3 3 2 3 8 11 5 3 5 6 6 7 8 8 7 9 9 11 10 10 11 10 10 10 10
3 3 3 3 3 3 3 4 4 3 4 4 4 4 4 4 3 3 3 3 3 2 2 2 2 4 11 7 4 5 6 6 6 7 7 7 7 9 10 10 9 11 12 14 11 9 9
3 3 3 3 3 4 4 4 4 4 4 4 4 4 4 4 4 4 4 4 2 2 2 2 5 7 10 3 5 4 6 6 6 6 6 5 8 10 9 12 13 13 14 14 11 10 10
3 3 3 3 3 4 4 4 4 4 4 4 4 4 4 4 4 4 4 3 1 2 2 2 3 10 8 7 4 5 5 5 6 7 7 8 10 12 13 13 16 15 15 14 13 11 10
3 3 4 4 3 4 4 4 4 4 4 4 4 4 4 4 4 4 5 5 9 9 6 8 9 9 6 4 4 5 5 5 6 7 10 10 12 13 12 12 12 12 13 13 11 10 11
3 3 3 4 4 4 4 4 4 4 4 4 5 5 5 5 4 4 7 8 8 8 10 7 7 7 6 5 7 6 4 7 8 10 10 11 13 10 10 11 11 12 13 13 11 10 11
3 3 3 4 4 4 4 4 4 4 5 5 5 5 5 5 5 7 8 7 7 8 11 10 7 7 7 6 7 6 5 7 9 10 11 12 10 9 10 11 11 12 13 13 12 11 11
3 3 3 4 4 4 4 4 5 5 5 5 5 5 5 5 7 9 8 7 8 7 14 12 9 7 6 6 8 5 5 7 10 10 10 11 9 9 11 11 11 13 10 11 11 13 14
3 3 3 4 4 4 5 5 5 5 5 6 5 5 5 5 10 9 7 8 8 7 19 9 8 5 6 8 8 7 6 8 10 10 10 11 11 11 12 10 10 11 10 11 11 13 15
4 4 3 4 4 4 5 5 5 5 6 6 6 5 5 7 10 8 8 8 7 12 19 9 8 8 9 8 7 8 8 7 8 10 11 10 9 10 10 9 9 9 11 12 14 15 17
4 4 3 4 4 4 5 5 5 5 6 6 6 6 6 6 9 8 8 7 14 16 9 10 10 8 9 9 8 8 9 10 11 14 14 11 11 10 8 11 9 11 13 16 17 17 17
3 3 4 4 4 4 4 5 5 6 6 6 6 6 7 5 6 6 7 10 16 13 10 9 9 10 10 10 10 10 10 12 10 11 14 14 14 10 8 10 11 12 13 16 20 20 17
3 3 3 4 4 4 5 5 6 6 6 6 7 9 7 6 6 8 10 14 16 11 9 10 10 12 12 11 11 11 12 12 11 11 13 14 14 9 8 8 9 12 14 13 16 16 18
4 3 4 4 4 4 5 5 5 6 6 7 11 10 7 6 7 9 12 14 12 8 8 9 13 11 14 12 12 13 13 10 10 9 11 12 15 10 9 9 9 11 10 15 15 20 22
3 4 4 4 4 5 5 5 5 6 6 7 11 10 7 6 8 11 15 14 10 7 8 10 12 12 12 13 13 13 13 11 10 10 10 11 12 12 11 12 13 12 14 13 14 15 19
4 4 4 4 5 5 5 6 6 6 7 9 12 12 8 7 11 13 14 12 9 9 9 9 10 11 12 12 13 12 12 11 9 10 12 11 13 15 12 12 11 13 13 13 16 17 17
4 5 5 5 5 5 5 6 5 6 7 11 12 12 7 9 14 15 13 11 10 10 10 10 11 10 10 12 14 12 11 9 8 10 12 12 15 17 15 13 12 12 12 13 15 15 17
5 5 5 5 5 5 5 5 6 6 7 10 12 14 12 11 13 14 14 14 12 9 10 11 11 11 12 13 12 13 11 9 8 8 5 8 15 15 17 15 13 14 12 12 13 16 16
5 5 5 5 5 5 5 5 5 6 7 11 13 15 14 16 15 15 15 14 13 14 11 11 12 13 13 15 14 13 12 12 9 8 10 12 15 14 14 12 12 12 12 12 13 13 14
5 5 5 5 5 5 5 5 5 6 7 13 16 16 15 16 15 15 15 15 14 14 13 13 14 13 13 15 15 15 14 14 13 11 12 13 15 15 15 12 12 13 12 11 12 12 12
6 6 5 5 5 5 5 4 5 5 9 15 14 14 14 16 16 16 16 14 14 13 13 12 13 13 14 13 12 12 12 12 12 13 13 14 16 16 17 13 13 16 13 13 12 11 11
6 5 6 6 6 5 5 5 5 5 9 14 14 15 16 18 16 15 14 14 14 14 15 13 12 14 12 10 11 12 13 12 12 12 11 14 15 16 19 15 20 13 10 10 11 11 12
6 6 6 6 6 6 6 5 5 5 6 12 13 14 15 17 16 16 14 15 14 14 14 14 13 11 11 13 15 16 16 15 13 11 12 11 13 16 18 18 14 12 11 11 12 12 10
6 6 6 6 6 6 6 6 6 5 6 10 13 13 14 18 18 14 15 15 17 17 16 13 11 11 12 14 15 18 18 16 16 14 12 12 12 14 19 21 20 13 9 8 9 14 9
6 6 6 6 6 6 5 6 6 6 5 8 10 12 13 15 13 14 16 15 13 15 15 13 12 12 11 15 15 17 16 13 16 16 15 15 15 15 17 17 14 10 8 7 15 14 9
6 6 6 6 5 6 6 5 5 5 5 9 10 11 11 12 11 11 10 12 11 10 13 12 12 12 12 13 14 14 14 13 14 13 13 14 15 15 15 17 18 9 9 11 10 8 8
6 5 5 5 6 5 5 5 4 4 4 5 8 8 6 8 8 7 6 5 5 6 8 8 10 11 10 12 11 10 12 11 13 16 10 15 12 14 13 14 10 7 8 7 8 9 9